Location: Kaiser
(34.0939°N, 117.4889°W)
Time: 03:12:09
(UTC+00:00)

Cosmos 1689 Rocket - Pass Details

Date: 29 October 2020
Orbit: 360 x 375 km, 97.5° (Epoch: 26 November)

Event Time Altitude Azimuth Distance (km) Brightness Sun altitude
Rises 13:16:26 0° 172° (S) 2,226 6.2 -11.1°
Reaches altitude 10° 13:18:23 10° 174° (S) 1,377 5.1 -10.7°
Maximum altitude 13:21:18 70° 258° (WSW) 401 1.9 -10.2°
Drops below altitude 10° 13:24:12 10° 343° (NNW) 1,367 4.6 -9.6°
Sets 13:26:10 0° 346° (NNW) 2,227 5.7 -9.2°
